This is the latest recevied weather packets stored in our database for station/object KE0LFX. If no packets are shown the sender has not sent any weather packets the latest 10 day(s).
| Time | Temp. | Humidity | Pressure | Rain* | Wind** | Luminosity | Snow |
|---|---|---|---|---|---|---|---|
| 1777972115 | 8.89° C | 52% | 1012.5 hPa | 0 mm | - | 0 W/m² | - |
| 1777971813 | 9.44° C | 52% | 1012.8 hPa | 0 mm | - | 0 W/m² | - |
| 1777971510 | 9.44° C | 52% | 1012.8 hPa | 0 mm | - | 0 W/m² | - |
| 1777971207 | 9.44° C | 51% | 1013.2 hPa | 0 mm | - | 0 W/m² | - |
| 1777970905 | 9.44° C | 52% | 1013.5 hPa | 0 mm | - | 0 W/m² | - |
| 1777970603 | 9.44° C | 52% | 1013.2 hPa | 0 mm | - | 0 W/m² | - |
| 1777970300 | 9.44° C | 51% | 1013.2 hPa | 0 mm | - | 0 W/m² | - |
| 1777969998 | 9.44° C | 51% | 1013.2 hPa | 0 mm | - | 0 W/m² | - |
| 1777969694 | 9.44° C | 52% | 1012.4 hPa | 0 mm | - | 0 W/m² | - |
| 1777969391 | 9.44° C | 50% | 1011.6 hPa | 0 mm | - | 0 W/m² | - |
| 1777969087 | 9.44° C | 51% | 1011.5 hPa | 0 mm | - | 0 W/m² | - |
| 1777968784 | 9.44° C | 51% | 1011.8 hPa | 0 mm | - | 0 W/m² | - |
| 1777968480 | 9.44° C | 52% | 1012 hPa | 0 mm | - | 0 W/m² | - |
| 1777968176 | 9.44° C | 52% | 1011.9 hPa | 0 mm | - | 0 W/m² | - |
| 1777967872 | 9.44° C | 56% | 1011.6 hPa | 0 mm | - | 0 W/m² | - |
| 1777967569 | 9.44° C | 56% | 1011.9 hPa | 0 mm | - | 0 W/m² | - |
| 1777967267 | 9.44° C | 57% | 1012.3 hPa | 0 mm | - | 0 W/m² | - |
| 1777966964 | 8.89° C | 57% | 1012 hPa | 0 mm | - | 0 W/m² | - |
| 1777966661 | 9.44° C | 55% | 1011.4 hPa | 0 mm | - | 0 W/m² | - |
| 1777966358 | 9.44° C | 55% | 1011.1 hPa | 0 mm | - | 0 W/m² | - |
| 1777966055 | 9.44° C | 54% | 1011.5 hPa | 0 mm | - | 0 W/m² | - |
| 1777965751 | 9.44° C | 54% | 1012.1 hPa | 0 mm | - | 0 W/m² | - |
| 1777965447 | 9.44° C | 56% | 1011.6 hPa | 0 mm | - | 0 W/m² | - |
| 1777965144 | 10° C | 55% | 1011.2 hPa | 0 mm | - | 0 W/m² | - |
| 1777964842 | 10° C | 54% | 1011.1 hPa | 0 mm | - | 0 W/m² | - |
* Rain latest hour (hover to see other rain measurements)
** Current wind speed in m/s (hover to see current wind gust speed)